TimeCDT,TemperatureF,Dew PointF,Humidity,Sea Level PressureIn,VisibilityMPH,Wind Direction,Wind SpeedMPH,Gust SpeedMPH,PrecipitationIn,Events,Conditions,WindDirDegrees,DateUTC
12:15 AM,73.4,69.8,88,30.02,10.0,Calm,Calm,-,N/A,,Clear,0,2013-08-22 05:15:00
12:35 AM,73.4,69.8,88,30.02,10.0,Calm,Calm,-,N/A,,Clear,0,2013-08-22 05:35:00
12:55 AM,73.4,69.8,88,30.02,10.0,Calm,Calm,-,N/A,,Clear,0,2013-08-22 05:55:00
1:15 AM,73.4,69.8,88,30.02,10.0,Calm,Calm,-,N/A,,Clear,0,2013-08-22 06:15:00
1:35 AM,73.4,69.8,88,30.02,10.0,Calm,Calm,-,N/A,,Clear,0,2013-08-22 06:35:00
1:55 AM,73.4,69.8,88,30.02,10.0,Calm,Calm,-,N/A,,Scattered Clouds,0,2013-08-22 06:55:00
2:15 AM,73.4,69.8,88,30.02,10.0,Calm,Calm,-,N/A,,Mostly Cloudy,0,2013-08-22 07:15:00
2:35 AM,73.4,69.8,88,30.02,7.0,Calm,Calm,-,N/A,,Overcast,0,2013-08-22 07:35:00
2:55 AM,73.4,69.8,88,30.02,10.0,Calm,Calm,-,N/A,,Overcast,0,2013-08-22 07:55:00
3:15 AM,73.4,69.8,88,30.02,7.0,Calm,Calm,-,N/A,,Overcast,0,2013-08-22 08:15:00
3:35 AM,73.4,69.8,88,30.03,10.0,Calm,Calm,-,N/A,,Overcast,0,2013-08-22 08:35:00
3:55 AM,73.4,69.8,88,30.03,10.0,ENE,4.6,-,N/A,,Overcast,70,2013-08-22 08:55:00
4:15 AM,73.4,69.8,88,30.04,10.0,ENE,4.6,-,N/A,,Overcast,60,2013-08-22 09:15:00
4:35 AM,73.4,68.0,83,30.04,10.0,Calm,Calm,-,N/A,,Overcast,0,2013-08-22 09:35:00
4:55 AM,73.4,69.8,88,30.04,3.0,SE,3.5,-,N/A,Rain,Light Rain,140,2013-08-22 09:55:00
5:15 AM,71.6,69.8,94,30.03,7.0,South,3.5,-,N/A,,Overcast,170,2013-08-22 10:15:00
5:35 AM,71.6,69.8,94,30.02,5.0,Calm,Calm,-,N/A,,Overcast,0,2013-08-22 10:35:00
5:55 AM,71.6,68.0,88,30.01,5.0,ENE,5.8,-,N/A,,Scattered Clouds,60,2013-08-22 10:55:00
6:15 AM,71.6,68.0,88,30.00,4.0,SE,4.6,-,N/A,,Clear,130,2013-08-22 11:15:00
6:35 AM,71.6,68.0,88,30.03,3.0,Calm,Calm,-,N/A,,Clear,0,2013-08-22 11:35:00
6:55 AM,71.6,68.0,88,30.04,1.8,Calm,Calm,-,N/A,,Scattered Clouds,0,2013-08-22 11:55:00
7:15 AM,71.6,68.0,88,30.04,1.5,SW,3.5,-,N/A,Rain,Light Rain,230,2013-08-22 12:15:00
7:35 AM,71.6,68.0,88,30.06,1.8,West,3.5,-,N/A,Rain,Rain,260,2013-08-22 12:35:00
7:55 AM,71.6,68.0,88,30.08,2.5,WNW,23.0,31.1,N/A,Rain,Rain,290,2013-08-22 12:55:00
8:15 AM,68.0,64.4,88,30.11,4.0,WNW,13.8,25.3,N/A,Rain,Heavy Rain,300,2013-08-22 13:15:00
8:35 AM,68.0,64.4,88,30.14,5.0,NW,15.0,20.7,N/A,Rain,Rain,310,2013-08-22 13:35:00
8:55 AM,68.0,64.4,88,30.15,5.0,NW,10.4,19.6,N/A,Rain,Heavy Rain,320,2013-08-22 13:55:00
9:15 AM,68.0,64.4,88,30.14,7.0,NNW,9.2,18.4,N/A,Rain,Rain,330,2013-08-22 14:15:00
9:35 AM,68.0,64.4,88,30.12,10.0,North,13.8,20.7,N/A,Rain,Rain,350,2013-08-22 14:35:00
9:55 AM,68.0,64.4,88,30.11,10.0,North,16.1,24.2,N/A,Rain,Light Rain,360,2013-08-22 14:55:00
10:15 AM,68.0,64.4,88,30.15,10.0,North,15.0,21.9,N/A,Rain,Rain,350,2013-08-22 15:15:00
10:35 AM,68.0,64.4,88,30.15,10.0,North,9.2,-,N/A,Rain,Light Rain,350,2013-08-22 15:35:00
10:55 AM,68.0,64.4,88,30.14,10.0,Calm,Calm,-,N/A,Rain,Light Rain,0,2013-08-22 15:55:00
11:15 AM,69.8,66.2,88,30.11,10.0,NE,9.2,-,N/A,Rain,Light Rain,50,2013-08-22 16:15:00
11:35 AM,69.8,66.2,88,30.09,10.0,ENE,6.9,-,N/A,,Mostly Cloudy,70,2013-08-22 16:35:00
11:55 AM,69.8,66.2,88,30.07,10.0,NE,11.5,-,N/A,Rain,Light Rain,40,2013-08-22 16:55:00
12:15 PM,69.8,66.2,88,30.04,10.0,ENE,13.8,25.3,N/A,,Mostly Cloudy,60,2013-08-22 17:15:00
12:35 PM,71.6,66.2,83,30.04,10.0,ENE,12.7,23.0,N/A,,Mostly Cloudy,70,2013-08-22 17:35:00
12:55 PM,71.6,66.2,83,30.06,10.0,SSE,10.4,-,N/A,,Scattered Clouds,160,2013-08-22 17:55:00
1:15 PM,71.6,66.2,83,30.05,10.0,SSE,8.1,-,N/A,,Scattered Clouds,150,2013-08-22 18:15:00
1:35 PM,71.6,66.2,83,30.08,10.0,South,4.6,-,N/A,,Mostly Cloudy,170,2013-08-22 18:35:00
1:55 PM,71.6,66.2,83,30.08,10.0,South,9.2,-,N/A,,Mostly Cloudy,180,2013-08-22 18:55:00
2:15 PM,73.4,66.2,78,30.07,10.0,SSE,4.6,-,N/A,,Mostly Cloudy,160,2013-08-22 19:15:00
2:35 PM,75.2,66.2,73,30.08,10.0,Calm,Calm,-,N/A,,Scattered Clouds,0,2013-08-22 19:35:00
2:55 PM,73.4,64.4,73,30.09,10.0,Calm,Calm,-,N/A,,Mostly Cloudy,0,2013-08-22 19:55:00
3:15 PM,73.4,64.4,73,30.10,10.0,Calm,Calm,-,N/A,,Overcast,0,2013-08-22 20:15:00
3:35 PM,75.2,64.4,69,30.11,10.0,SSW,3.5,-,N/A,,Overcast,210,2013-08-22 20:35:00
3:55 PM,77.0,64.4,65,30.10,10.0,SW,4.6,-,N/A,,Mostly Cloudy,220,2013-08-22 20:55:00
4:15 PM,77.0,64.4,65,30.10,10.0,Calm,Calm,-,N/A,,Mostly Cloudy,0,2013-08-22 21:15:00
4:35 PM,77.0,64.4,65,30.10,10.0,SW,6.9,-,N/A,,Overcast,230,2013-08-22 21:35:00
4:55 PM,77.0,64.4,65,30.11,10.0,SW,6.9,-,N/A,,Mostly Cloudy,230,2013-08-22 21:55:00
5:15 PM,77.0,64.4,65,30.10,10.0,SW,8.1,-,N/A,,Mostly Cloudy,230,2013-08-22 22:15:00
5:35 PM,78.8,64.4,61,30.10,10.0,SW,6.9,-,N/A,,Mostly Cloudy,220,2013-08-22 22:35:00
5:55 PM,77.0,62.6,61,30.10,10.0,WSW,4.6,-,N/A,,Scattered Clouds,250,2013-08-22 22:55:00
6:15 PM,77.0,62.6,61,30.10,10.0,SSW,4.6,-,N/A,,Scattered Clouds,210,2013-08-22 23:15:00
6:35 PM,77.0,62.6,61,30.10,10.0,WSW,4.6,-,N/A,,Clear,250,2013-08-22 23:35:00
6:55 PM,75.2,64.4,69,30.10,10.0,WSW,3.5,-,N/A,,Clear,240,2013-08-22 23:55:00
7:15 PM,73.4,64.4,73,30.10,10.0,SW,3.5,-,N/A,,Clear,220,2013-08-23 00:15:00
7:35 PM,73.4,64.4,73,30.10,10.0,SW,3.5,-,N/A,,Mostly Cloudy,220,2013-08-23 00:35:00
7:55 PM,73.4,64.4,73,30.10,10.0,SSW,3.5,-,N/A,,Mostly Cloudy,210,2013-08-23 00:55:00
8:15 PM,73.4,64.4,73,30.11,10.0,Calm,Calm,-,N/A,,Mostly Cloudy,0,2013-08-23 01:15:00
8:35 PM,71.6,64.4,78,30.11,10.0,Calm,Calm,-,N/A,,Scattered Clouds,0,2013-08-23 01:35:00
8:55 PM,71.6,64.4,78,30.12,10.0,Calm,Calm,-,N/A,,Scattered Clouds,0,2013-08-23 01:55:00
9:15 PM,71.6,64.4,78,30.12,10.0,Calm,Calm,-,N/A,,Scattered Clouds,0,2013-08-23 02:15:00
9:35 PM,71.6,66.2,83,30.12,10.0,Calm,Calm,-,N/A,,Scattered Clouds,0,2013-08-23 02:35:00
9:55 PM,69.8,66.2,88,30.12,10.0,Calm,Calm,-,N/A,,Mostly Cloudy,0,2013-08-23 02:55:00
10:15 PM,69.8,66.2,88,30.12,10.0,Calm,Calm,-,N/A,,Scattered Clouds,0,2013-08-23 03:15:00
10:35 PM,69.8,66.2,88,30.12,10.0,SE,3.5,-,N/A,,Clear,140,2013-08-23 03:35:00
10:55 PM,69.8,66.2,88,30.12,10.0,Calm,Calm,-,N/A,,Clear,0,2013-08-23 03:55:00
11:15 PM,69.8,66.2,88,30.13,10.0,Calm,Calm,-,N/A,,Clear,0,2013-08-23 04:15:00
11:35 PM,69.8,66.2,88,30.13,10.0,Calm,Calm,-,N/A,,Clear,0,2013-08-23 04:35:00
11:55 PM,68.0,64.4,88,30.13,5.0,Calm,Calm,-,N/A,,Clear,0,2013-08-23 04:55:00